Regional Weather Roundup
Issued by NWS

Home | Current Version | Previous Version | Graphics & Text | Print | Product List | Glossary On
Versions: 1 2 3 4 5 6 7 8 9 10 11 12 13 14 15 16 17 18 19 20 21 22 23 24 25 26 27 28 29 30 31 32 33 34 35 36 37 38 39 40 41 42 43 44 45 46 47 48 49 50
000
ASUS43 KMKX 230300
RWRWI

WISCONSIN REGIONAL WEATHER ROUNDUP
NATIONAL WEATHER SERVICE MILWAUKEE/SULLIVAN WI
1000 PM CDT WED OCT 22 2014

NOTE: "FAIR" INDICATES FEW OR NO CLOUDS BELOW 12,000 FEET WITH NO
SIGNIFICANT WEATHER AND/OR OBSTRUCTIONS TO VISIBILITY.

WIZ001-002-006>008-014>016-023>028-230400-
NORTHWEST WISCONSIN

CITY           SKY/WX    TMP DP  RH WIND       PRES   REMARKS
SUPERIOR ARPT  CLOUDY    53  35  51 S3        30.05F
ASHLAND        CLOUDY    53  33  46 S7        30.08F
HAYWARD        MOCLDY    52  34  50 S14       30.08F
SIREN          CLOUDY    55  35  46 S12       30.06F
CUMBERLAND     CLOUDY    52  36  54 SE10G21   30.08F
RICE LAKE      CLOUDY    53  38  58 SE14      30.12R
CHETEK         CLOUDY    49  42  78 E7        30.12R
LADYSMITH      CLOUDY    52  36  54 SE8G16    30.15F
EAU CLAIRE     NOT AVBL
MENOMONIE      MOCLDY    51  42  72 E6        30.11S
NEW RICHMOND   CLOUDY    54  38  55 S10       30.07S
OSCEOLA        MOCLDY    54  39  56 S5        30.10R
$$

WIZ003>005-009-010-017-018-230400-
NORTH CENTRAL WISCONSIN

CITY           SKY/WX    TMP DP  RH WIND       PRES   REMARKS
MANITOWISH WTR MOCLDY    45  33  61 S10       30.16R
ARBOR VITAE    MOCLDY    46  35  65 S8        30.17S
WOODRUFF       MOCLDY    46  35  65 S8        30.17S
RHINELANDER    CLEAR     43  35  73 S6        30.19S
EAGLE RIVER    CLEAR     40  31  69 S6        30.18S
LAND O LAKES   CLEAR     42  32  67 S6        30.18F
PHILLIPS       CLOUDY    47  35  62 S8        30.15S
TOMAHAWK       CLEAR     42  34  72 CALM      30.19R
MEDFORD        MOCLDY    44  35  70 SE6       30.17S
MERRILL        CLEAR     42  36  76 SE5       30.19S
$$

WIZ029-030-035-036-043>047-230400-
CENTRAL WISCONSIN

CITY           SKY/WX    TMP DP  RH WIND       PRES   REMARKS
WAUSAU         CLEAR     43  36  76 SE3       30.19S
MOSINEE        CLEAR     43  37  81 SE6       30.20S
MARSHFIELD     CLEAR     45  36  70 SE7       30.18S
STEVENS POINT  CLEAR     40  33  77 SE3       30.21S
WAUPACA        CLEAR     43  40  91 SE5       30.23S
WAUTOMA        NOT AVBL
WISC RAPIDS    CLEAR     43  35  73 SE7       30.21S
CAMP DOUGLAS   NOT AVBL
$$

WIZ011>013-019>022-031-037>040-048>050-230400-
NORTHEAST WISCONSIN

CITY           SKY/WX    TMP DP  RH WIND       PRES   REMARKS
ANTIGO         CLEAR     38  35  90 SE7       30.21S WCI  32
SHAWANO        CLEAR     42  38  86 S5        30.25S
OCONTO         CLEAR     42  40  95 S5        30.26S
STURGEON BAY   CLEAR     39  36  87 S6        30.27S WCI  35
GREEN BAY      CLEAR     40  37  89 S3        30.26S
MANITOWOC      NOT AVBL
APPLETON       PTCLDY    39  37  93 SE7       30.25R WCI  34
CLINTONVILLE   CLEAR     39  36  87 SE5       30.24S
OSHKOSH        CLEAR     39  37  92 S7        30.24S WCI  34
$$

WIZ032>034-041-042-053>061-230400-
SOUTHWEST WISCONSIN

CITY           SKY/WX    TMP DP  RH WIND       PRES   REMARKS
LA CROSSE      CLOUDY    54  37  52 S9        30.16S
SPARTA         PTCLDY    42  34  74 SE5       30.18F
VIROQUA        CLEAR     48  36  62 SE7       30.17F
BOSCOBEL       CLEAR     40  36  86 E3        30.20F
PRAIRIE DU CHI PTCLDY    49  36  61 E6        30.18S
PLATTEVILLE    CLEAR     46  35  66 SE12      30.22S
$$

WIZ056-057-062-063-064-067-068-230400-
SOUTH CENTRAL WISCONSIN

CITY           SKY/WX    TMP DP  RH WIND       PRES   REMARKS
REEDSBURG      CLEAR     44  36  71 SE3       30.20S
BARABOO/DELLS  CLEAR     43  35  73 S3        30.21S
LONE ROCK      NOT AVBL
MINERAL POINT  CLEAR     45  34  65 SE7       30.22S
MADISON        PTCLDY    46  38  73 S10       30.24S
MIDDLETON      CLEAR     38  37  97 CALM      30.24S
WATERTOWN      CLEAR     40  38  94 CALM      30.26S
MONROE         CLEAR     45  36  70 S9        30.24S
JANESVILLE     CLEAR     41  37  87 SE6       30.26R
$$

WIZ051-052-058>065-066-070>072-230400-
SOUTHEAST WISCONSIN

CITY           SKY/WX    TMP DP  RH WIND       PRES   REMARKS
MILWAUKEE      CLEAR     41  35  79 S3        30.27S
WAUKESHA       CLEAR     37  36  93 S5        30.28R WCI  34
MILWAUKEE/TIMM CLEAR     36  34  93 CALM      30.28S
RACINE         CLEAR     38  33  82 CALM      30.29S
BURLINGTON     CLEAR     32  32  99 CALM      30.27S
KENOSHA        CLEAR     38  34  85 S5        30.28R WCI  34
FOND DU LAC    CLEAR     39  36  89 S7        30.25S WCI  34
SHEBOYGAN      CLEAR     32  31  96 W3        30.28R FOG
WEST BEND      CLEAR     36  34  93 CALM      30.27R
JUNEAU         CLEAR     40  37  89 SE9       30.26S FOG     WCI  34
$$

LSZ147-162-230400-
LAKE SUPERIOR

STATION/POSITION TIME  TEMP    WIND        PRES    WAVE
                       AIR SEA DIR/SP/G            HT/PER
                 (UTC) (F)     (DEG/KT/KT) (MB)    (FT/S)
W MID LAKE BUOY  0150   50 46  150/ 10/ 12 1019.5F   1/ 3
DEVILS ISLAND    0200   55     170/  7/  9 1018.8S
PORT WING        0240   52     220/  2/  5 1018.3F
SAXON HARBOR     0200   56     190/  9/ 16 1018.3F
$$

LMZ867-665-643>646-230400-
LAKE MICHIGAN

STATION/POSITION TIME  TEMP    WIND        PRES    WAVE
                       AIR SEA DIR/SP/G            HT/PER
                 (UTC) (F)     (DEG/KT/KT) (MB)    (FT/S)
CHAMBERS ISLAND  0240   42     150/  4/  6 1025.1S
N MID LAKE BUOY  0150   45 51  160/ 10/ 12 1025.7F   0
NORTHPORT PIER   0200   42     170/  4/  7 1025.1R
SISTER BAY       0212          150/  9/ 11   N/A
ALGOMA LAKESHORE 0126          220/ 13/ 16   N/A
KEWAUNEE LAKESHO 0200   46     170/ 10/ 11 1024.1R
SHEBOYGAN LAKESH 0200   47 50  150/ 12/ 13 1025.7R
PORT WASHINGTON  0200   48     160/  9/ 11 1025.7S
ATWATER BUOY     0200   48     140/ 12/ 14 1025.9R
MILWAUKEE LAKESH 0200   47     140/ 10/ 11   N/A
S MID LAKE BUOY  0150   49 54  100/  8/ 10 1025.6F   1
KENOSHA   LAKESH 0200   48     140/  8/ 10 1024.7S
$$

TC  - TEMPERATURE IN CELSIUS
VSB - VISIBILITY IN STATUTE MILES
WCI - WIND CHILL INDEX
HX  - HEAT INDEX




USA.gov is the U.S. government's official web portal to all federal, state and local government web resources and services.